Location: Berg
(47.2344°N, 9.5296°E)
Time: 04:55:22
(UTC+00:00)

Nauka - Pass Details

Date: 25 September 2021
Orbit: 418 x 423 km, 51.6° (Epoch: 15 October)

Event Time Altitude Azimuth Distance (km) Brightness Sun altitude
Rises 19:43:49 0° 291° (WNW) 2,368 ? -25.4°
Reaches altitude 10° 19:45:59 10° 298° (WNW) 1,504 ? -25.8°
Enters shadow 19:47:49 28° 315° (NW) 834 ? -26.0°
